Location: *
(37.4917°N, 71.5558°E)
Time: 08:29:28
(UTC+00:00)

Daily predictions for brighter satellites

Satellite Brightness Start Highest point End
(mag) Time Altitude Azimuth Time Altitude Azimuth Time Altitude Azimuth
Cosmos 1943 3.5 14:02:26 10° SSW 14:08:04 75° WNW 14:13:47 10° NNE
Cosmos 1656 Rocket 4.2 14:04:32 10° N 14:09:50 40° ENE 14:15:01 10° SE
Cosmos 1992 Rocket 4.0 14:05:33 10° NNW 14:10:48 87° ENE 14:15:59 10° SSE
Hubble Space Telescope 2.5 14:08:17 10° SSW 14:11:09 18° SSE 14:14:02 10° SE
Cosmos 2263 4.2 14:10:10 10° NNW 14:15:46 70° ENE 14:21:21 10° SSE
SL-4 R/B 4.1 14:14:57 10° WNW 14:17:31 20° NNW 14:20:06 10° NNE
Cosmos 2228 3.3 14:15:31 10° SSE 14:19:37 46° E 14:23:46 10° NNE
Cosmos 1726 2.1 14:16:44 10° S 14:20:27 86° E 14:24:11 10° N
Cosmos 1825 Rocket 3.9 14:16:18 10° N 14:20:28 43° E 14:24:35 10° SSE
Cosmos 1340 Rocket 3.8 14:18:03 10° SSE 14:21:25 26° E 14:24:46 10° NE
Cosmos 1908 3.7 14:18:46 10° SSE 14:22:21 39° E 14:25:59 10° NNE
Cosmos 1703 4.1 14:18:49 10° NNE 14:22:22 31° ENE 14:25:55 10° SE
CZ-2C R/B 4.0 14:19:16 10° NE 14:22:31 17° E 14:25:46 10° SE
SL-24 R/B - RUBIN 2 4.2 14:17:58 10° SSW 14:23:18 78° ESE 14:29:25 10° NNE
ARGOS 3.7 14:18:43 10° SE 14:23:39 38° ENE 14:28:35 10° N
IRIDIUM 106 4.4 14:18:31 10° N 14:23:41 62° E 14:28:50 10° SSE
Resurs 01 Rocket 3.7 14:25:58 10° ENE 14:26:36 10° ENE 14:27:15 10° NE
Cosmos 1328 4.4 14:24:48 10° NNE 14:28:30 35° ENE 14:32:10 10° SE
GEOS 3 Rocket 3.9 14:24:15 10° SE 14:29:11 51° NE 14:34:14 10° NNW
ISS -1.0 14:31:32 10° W 14:33:40 16° SW 14:35:48 10° SSW
Cosmos 1437 2.5 14:31:12 10° N 14:34:13 89° NE 14:37:13 10° S
Cosmos 1758 Rocket 3.4 14:30:51 10° N 14:35:11 80° E 14:39:29 10° S
FREGAT/IRIS 2.9 14:33:04 12° SE 14:35:18 37° ENE 14:37:52 10° N
Cosmos 1606 Rocket 3.5 14:33:58 10° S 14:38:24 85° E 14:42:52 10° N
Cosmos 2074 Rocket 4.0 14:32:37 10° N 14:38:57 78° E 14:45:14 10° S
USA 234 4.1 14:37:15 10° ENE 14:42:25 25° ESE 14:47:34 10° S
IRS-1A Rocket 4.3 14:36:58 10° SSE 14:42:39 75° ENE 14:48:29 10° N
STARLINK-52 4.4 14:40:15 10° WSW 14:43:17 39° NW 14:46:20 10° NE
Cosmos 1953 Rocket 3.7 14:39:03 10° N 14:43:27 53° E 14:47:49 10° SSE
ATLAS 2AS CENTAUR R/B 3.0 14:37:39 10° NNW 14:45:03 59° NE 14:50:35 16° SE
CZ-4 R/B 4.3 14:45:39 10° SW 14:47:54 15° W 14:50:11 10° WNW
Cosmos 1610 Rocket 4.4 14:49:55 10° N 14:56:03 67° E 15:02:07 10° SSE
ATLAS 5 CENTAUR R/B 2.3 14:52:56 10° SW 14:56:54 51° NW 15:01:16 10° NNE
USA 186 1.8 14:54:44 10° S 14:58:00 82° W 15:01:12 10° NNW
H-2A R/B 2.1 14:54:25 10° S 14:59:39 81° WSW 15:04:45 10° NNW
COSMOS 2455 3.5 14:55:53 10° NNW 15:01:30 39° NE 15:04:26 24° ESE
STARLINK-67 3.8 15:06:10 10° NNW 15:08:16 28° NNE 15:08:16 28° NNE
Cosmos 1140 Rocket 3.6 15:03:42 10° SSW 15:08:53 75° WNW 15:14:04 10° NNE
Ariane Rocket 3.6 15:04:49 10° S 15:09:46 55° W 15:14:45 10° NNW
ATLAS 5 CENTAUR R/B 4.0 15:05:06 10° SSW 15:10:01 24° SSE 15:13:32 21° SE
OE (NEXTSAT) 4.4 15:06:45 10° SW 15:10:11 55° SE 15:10:45 47° ESE
CZ-2C R/B 3.3 15:08:52 10° S 15:13:43 64° WSW 15:18:27 10° NNW
GPS 2-04 Rocket1 3.5 15:15:37 10° SW 15:19:06 34° SSE 15:19:06 34° SSE
STARLINK-1234 4.4 15:16:45 10° NNW 15:19:19 25° NNE 15:19:19 25° NNE
STARLINK-1209 4.3 15:17:10 10° NNW 15:19:46 27° NNE 15:19:46 27° NNE
APEX 4.2 15:17:33 10° NNW 15:23:39 74° WSW 15:26:28 26° S
Abrixas rocket 3.9 15:25:14 10° NNW 15:27:23 22° NNE 15:27:23 22° NNE
Resurs 1-3 3.5 15:26:44 46° SE 15:27:54 70° ENE 15:32:16 10° N
SJ-6B 3.8 15:27:58 16° S 15:31:04 47° W 15:35:04 10° NNW
STARLINK-1235 4.4 15:28:33 10° NNW 15:30:50 28° NNE 15:30:50 28° NNE
BREEZE M DEB (TANK) 3.1 15:31:19 10° WSW 15:34:08 56° NNW 15:41:20 10° NE
Cosmos 1300 2.7 15:33:31 41° SSW 15:34:46 79° W 15:38:36 10° N
Cosmos 2341 Rocket 3.9 15:33:54 10° N 15:40:19 81° E 15:43:29 32° SSE
DMSP B5D2-2 4.4 15:41:17 10° N 15:46:27 64° WNW 15:51:37 10° SSW
COSMOS 2406 3.7 15:49:16 41° ENE 15:49:16 41° ENE 15:53:24 10° NNE
Cosmos 2218 Rocket 4.0 15:45:35 10° N 15:51:44 60° E 15:52:39 54° ESE
Hubble Space Telescope 2.9 15:48:30 10° SW 15:49:58 17° SW 15:49:58 17° SW
Cosmos 1461 3.8 15:50:01 10° NW 15:54:28 49° WSW 15:55:10 45° SW
Cosmos 921 Rocket 3.6 15:51:30 10° NNW 15:55:32 48° WSW 15:56:03 45° SW
BREEZE-M DEB (TANK) 3.8 15:51:45 10° WSW 15:56:57 57° WNW 15:56:57 57° WNW
Resurs 01 Rocket 1.8 16:02:36 69° W 16:02:36 69° W 16:06:52 10° NNW
CZ-2C R/B 3.3 15:58:03 10° N 16:03:04 52° WNW 16:08:08 10° SSW
Cosmos 2181 Rocket 4.1 15:58:38 19° SSW 16:03:13 75° W 16:09:25 10° N
SL-8 Rocket 3.9 15:58:00 10° N 16:04:21 90° WNW 16:05:52 56° S
Cosmos 864 Rocket 4.3 15:59:50 10° N 16:06:01 71° E 16:06:22 69° ESE
Cosmos 1697 Rocket 4.3 16:05:44 10° N 16:09:15 22° NE 16:09:15 22° NE
Cosmos 1812 Rocket 4.3 16:11:11 50° NNW 16:11:11 50° NNW 16:14:33 10° N
Cosmos 2058 4.2 16:06:22 10° N 16:08:44 33° N 16:08:44 33° N
Meteor 2-1 Rocket 4.3 16:16:30 66° SSW 16:17:21 81° W 16:23:19 10° N
Cosmos 2366 rocket 3.8 16:12:11 10° N 16:18:21 88° W 16:18:46 79° S
USA 245 4.3 16:18:48 74° NE 16:18:48 74° NE 16:24:50 10° N
Cosmos 1741 Rocket 4.2 16:20:44 68° W 16:20:53 69° WNW 16:26:13 10° NNE
Cosmos 1959 Rocket 4.4 16:16:29 10° N 16:22:46 79° W 16:23:20 72° SSW
USA 234 3.2 16:19:13 10° NE 16:25:46 79° NW 16:32:19 10° SW
SPOT 1/Viking Rocket 4.4 16:28:51 42° NNE 16:28:51 42° NNE 16:32:24 10° N
Cosmos 1656 4.3 16:24:12 10° NNW 16:28:30 46° NNE 16:28:30 46° NNE
Cosmos 1763 Rocket 4.3 16:27:53 10° NNW 16:31:24 44° N 16:31:24 44° N
ATLAS 2AS CENTAUR R/B 4.3 16:29:40 10° NW 16:35:24 26° WSW 16:38:03 20° SW
Cosmos 1980 Rocket 4.1 16:35:59 10° N 16:38:30 19° NNE 16:38:30 19° NNE
COSMOS 2455 4.1 16:42:03 10° NW 16:47:16 31° WSW 16:47:36 31° WSW
Cosmos 2082 Rocket 4.4 17:10:35 16° NNE 17:10:35 16° NNE 17:11:35 10° NNE
Terra 4.1 17:12:07 19° N 17:12:07 19° N 17:13:31 10° N
Cosmos 1833 Rocket 4.4 17:15:49 27° N 17:15:49 27° N 17:18:26 10° NNE
CZ-4C R/B 3.6 17:25:49 10° NNW 17:31:27 48° NNE 17:31:27 48° NNE
Cosmos 2344 4.5 18:08:45 10° NNW 18:18:34 79° NNE 18:18:34 79° NNE
SL-16 R/B 4.2 20:18:33 28° NNE 20:18:33 28° NNE 20:21:52 10° N
Cosmos 2237 Rocket 4.5 20:20:17 10° N 20:22:52 20° NNE 20:22:52 20° NNE
Cosmos 2297 Rocket 4.3 20:43:34 22° NE 20:43:34 22° NE 20:45:46 10° NE
ADEOS II 4.3 20:50:32 10° NE 20:52:47 21° ENE 20:52:47 21° ENE
Cosmos 2227 Rocket 3.7 21:09:52 32° NE 21:09:52 32° NE 21:12:54 10° NNE
Resurs 1-4 Rocket 4.1 21:05:12 10° N 21:07:12 24° N 21:07:12 24° N
USA 238 DEB 4.2 21:17:17 53° NNE 21:17:17 53° NNE 21:22:23 10° NNE
USA 238 4.2 21:17:22 54° NNE 21:17:22 54° NNE 21:22:31 10° NNE
CENTAUR R/B 2.9 21:38:26 57° ENE 21:38:26 57° ENE 21:43:56 10° NE
NOSS 3-2 (A) 4.1 21:39:59 47° N 21:39:59 47° N 21:44:46 10° NNE
CZ-2D R/B 3.9 21:37:50 10° N 21:40:20 24° NNW 21:40:20 24° NNW
Cosmos 2082 4.2 21:47:11 57° NE 21:47:11 57° NE 21:51:44 10° NNE
SL-16 R/B 3.4 21:41:49 10° N 21:47:06 39° ENE 21:52:23 10° SE
SL-16 R/B 4.3 22:03:38 17° NW 22:03:38 17° NW 22:05:15 10° NW
Cosmos 1125 Rocket 4.0 22:05:13 53° N 22:05:13 53° N 22:09:19 10° NNE
ATLAS 5 CENTAUR R/B 4.4 22:00:37 10° N 22:05:27 26° NE 22:10:48 10° ESE
BREEZE-M DEB (TANK) 4.3 22:07:30 25° NE 22:07:30 25° NE 22:08:31 10° NE
Cosmos 2237 Rocket 4.3 22:03:37 10° NW 22:04:38 15° NW 22:04:38 15° NW
NOSS 3-2 (C) 3.6 22:11:50 56° NW 22:11:50 56° NW 22:17:48 10° NNE
Cosmos 2279 Rocket 3.9 22:06:13 10° N 22:12:29 82° E 22:13:52 57° SSE
Cosmos 2263 Rocket 4.0 22:10:16 18° SE 22:13:04 26° ESE 22:17:40 10° NE
Meteor 1-19 Rocket 4.2 22:21:38 67° NW 22:21:38 67° NW 22:26:44 10° N
CZ-2D R/B 4.4 22:18:55 10° N 22:21:44 42° N 22:21:44 42° N
Cosmos 2297 Rocket 3.5 22:25:23 25° NW 22:25:23 25° NW 22:29:22 10° N
ADEOS II 3.2 22:30:05 10° N 22:33:43 30° NW 22:33:43 30° NW
Meteor 2-9 Rocket 4.1 22:29:53 10° NNW 22:35:45 75° W 22:37:22 49° SSW
ATLAS 3B R/B 2.5 22:35:05 52° SW 22:36:52 84° WNW 22:43:33 10° NNE
CZ-4B R/B 3.5 22:34:47 10° SE 22:37:48 28° ENE 22:40:50 10° NNE
USA 267 3.3 22:34:09 10° NE 22:40:38 69° NW 22:42:45 44° WSW
ARIANE 5 R/B 3.2 22:35:51 10° N 22:40:21 40° WNW 22:40:21 40° WNW
Meteor 2-4 Rocket 3.7 22:40:17 52° SSW 22:41:46 75° W 22:47:40 10° N
IDEFIX/ARIANE 42P 2.4 22:40:01 10° NNE 22:45:14 89° W 22:46:52 46° SSW
Spot 4 Rocket 4.3 22:41:23 10° N 22:46:21 49° WNW 22:46:32 48° W
Cosmos 2180 Rocket 4.4 22:43:17 10° NNW 22:49:27 64° W 22:52:41 29° SSW
Cosmos 967 Rocket 4.4 22:43:39 10° NNW 22:50:09 88° SW 22:56:31 10° SSE
H-2A R/B 3.8 22:52:57 19° NW 22:52:57 19° NW 22:54:16 10° NNW
Cosmos 2227 Rocket 3.8 22:51:41 18° NW 22:51:50 18° NW 22:55:41 10° N
Cosmos 397 4.4 22:52:16 65° WSW 22:52:44 72° WNW 22:56:49 10° NNE
Okean 3 4.1 22:56:57 37° NW 22:56:57 37° NW 23:00:11 10° N
Cosmos 2227 4.2 22:54:26 32° SSW 22:57:10 80° ESE 23:02:48 10° NNE
SAR-Lupe-4 4.1 22:58:05 45° NW 22:58:05 45° NW 23:00:44 10° NNW
CZ-2C R/B 3.5 23:00:25 10° N 23:03:52 38° WNW 23:03:52 38° WNW
Cosmos 1674 Rocket 3.4 23:02:27 33° S 23:04:24 89° WNW 23:08:48 10° N
Cosmos 494 Rocket 4.2 23:02:53 10° NNW 23:07:52 44° WSW 23:10:41 24° SSW
ADEOS 4.0 23:03:24 10° NNE 23:08:34 60° ESE 23:13:42 10° S
deb Chang Zheng 4 3.7 23:04:55 10° N 23:09:10 56° WNW 23:10:19 41° SW
STARLINK-43 3.7 23:09:06 15° NW 23:12:06 63° NE 23:15:46 10° ESE
Meteor 1-4 Rocket 2.9 23:12:05 45° W 23:12:10 45° W 23:15:48 10° N
USA 234 4.5 23:06:33 10° ESE 23:12:36 42° NE 23:18:39 10° NNW
SAR-Lupe-1 4.5 23:14:56 41° W 23:14:56 41° W 23:17:59 10° NNW
COBE Rocket 4.1 23:14:33 26° SSW 23:16:46 44° W 23:21:15 10° NNW
Timation 1 Rocket 4.3 23:14:05 24° SSW 23:17:50 75° WNW 23:23:53 10° NNE
Cosmos 1818 3.7 23:21:57 10° NW 23:27:12 49° WSW 23:32:23 10° S
Cosmos 1300 Rocket 4.2 23:23:49 10° NNW 23:27:41 33° W 23:29:07 26° SW
CENTAUR R/B 3.9 23:25:36 17° WNW 23:28:43 24° NW 23:34:12 10° NNE
MSX 4.0 23:23:44 10° N 23:29:21 54° WNW 23:34:02 15° SW
SL-16 R/B 3.1 23:26:22 10° NW 23:30:58 26° WSW 23:35:35 10° SSW
Shenzhou-11 Module 1.4 23:33:10 50° WSW 23:33:43 88° NNW 23:36:16 10° ENE
Cosmos 1066 Rocket 4.3 23:31:02 10° SSW 23:36:52 75° W 23:42:45 10° N
Cosmos 1867 4.2 23:35:01 21° WSW 23:38:03 38° NW 23:43:09 10° NNE
PSLV R/B 4.0 23:34:27 10° N 23:38:36 42° WNW 23:41:40 17° SW
Cosmos 1092 Rocket 4.2 23:35:01 10° SSW 23:41:09 52° W 23:47:18 10° N
Cosmos 1378 Rocket 3.9 23:38:35 16° SSW 23:41:48 43° W 23:45:59 10° N
Cosmos 1378 3.2 23:39:21 10° S 23:43:03 77° E 23:46:48 10° N
Geosat 4.1 23:39:18 10° NNE 23:44:16 62° WNW 23:48:58 11° SW
Lacrosse 5 3.5 23:42:19 10° S 23:46:43 31° ESE 23:51:08 10° ENE
Gbstr 26 Del rocket 4.0 23:41:59 18° WSW 23:46:43 56° NW 23:51:50 10° NE
Cosmos 2026 Rocket 4.0 23:43:44 10° SSW 23:49:45 61° W 23:55:46 10° N
ATLAS 5 CENTAUR R/B 2.5 23:44:29 10° NW 23:50:29 63° WSW 23:57:17 10° SSE
Lacrosse 4 Rocket 4.0 23:47:26 10° SSE 23:50:46 22° ESE 23:54:08 10° ENE
Cosmos 1842 4.2 23:51:31 10° S 23:55:18 52° E 23:59:07 10° NNE
STARLINK-1150 4.5 23:52:34 10° SSW 23:55:59 38° SE 23:59:24 10° ENE
